This is the latest recevied weather packets stored in our database for station/object WB0RXX. If no packets are shown the sender has not sent any weather packets the latest 10 day(s).
| Time | Temp. | Humidity | Pressure | Rain* | Wind** | Luminosity | Snow |
|---|---|---|---|---|---|---|---|
| 1777492804 | 13.33° C | 43% | 1017.9 hPa | 0 mm | - | - | - |
| 1777492219 | 13.33° C | 42% | 1017.9 hPa | 0 mm | - | - | - |
| 1777491603 | 13.33° C | 42% | 1017.9 hPa | 0 mm | - | - | - |
| 1777491003 | 13.33° C | 43% | 1017.9 hPa | 0 mm | - | - | - |
| 1777490404 | 13.89° C | 42% | 1017.8 hPa | 0 mm | - | - | - |
| 1777489803 | 13.89° C | 42% | 1017.9 hPa | 0 mm | - | - | - |
| 1777489219 | 13.89° C | 45% | 1018 hPa | 0 mm | - | - | - |
| 1777488603 | 13.33° C | 41% | 1018 hPa | 0 mm | - | - | - |
| 1777488004 | 13.33° C | 46% | 1018.2 hPa | 0 mm | - | - | - |
| 1777487405 | 13.33° C | 43% | 1018.2 hPa | 0 mm | - | - | - |
| 1777486803 | 12.78° C | 46% | 1018.5 hPa | 0 mm | - | - | - |
| 1777486205 | 12.78° C | 46% | 1018.5 hPa | 0 mm | - | - | - |
| 1777485605 | 12.78° C | 47% | 1018.7 hPa | 0 mm | - | - | - |
| 1777485003 | 12.78° C | 48% | 1018.7 hPa | 0 mm | - | - | - |
| 1777484404 | 12.22° C | 48% | 1018.9 hPa | 0 mm | - | - | - |
| 1777483805 | 12.78° C | 48% | 1018.9 hPa | 0 mm | - | - | - |
| 1777483219 | 12.22° C | 48% | 1018.9 hPa | 0 mm | - | - | - |
| 1777482603 | 12.22° C | 51% | 1019.2 hPa | 0 mm | - | - | - |
| 1777482005 | 12.22° C | 49% | 1019.3 hPa | 0 mm | - | - | - |
| 1777481404 | 11.67° C | 51% | 1019.3 hPa | 0 mm | - | - | - |
| 1777480803 | 11.67° C | 53% | 1019.3 hPa | 0 mm | - | - | - |
| 1777480204 | 11.67° C | 51% | 1019.4 hPa | 0 mm | - | - | - |
| 1777479604 | 11.11° C | 54% | 1019.4 hPa | 0 mm | - | - | - |
| 1777479005 | 11.11° C | 53% | 1019.5 hPa | 0 mm | - | - | - |
| 1777478404 | 10.56° C | 53% | 1019.6 hPa | 0 mm | - | - | - |
* Rain latest hour (hover to see other rain measurements)
** Current wind speed in m/s (hover to see current wind gust speed)